Location: Praha
(50.0830°N, 14.4670°E)
Time: 11:35:45
(UTC+02:00)

ISS - Pass Details

Date: 19 September 2022
Orbit: 415 x 420 km, 51.6° (Epoch: 02 October)

Event Time Altitude Azimuth Distance (km) Brightness Sun altitude
Rises 21:56:10 0° 270° (W) 2,385 0.8 -26.0°
Reaches altitude 10° 21:58:17 10° 273° (W) 1,518 -0.3 -26.2°
Enters shadow 21:59:47 24° 279° (W) 932 -1.5 -26.4°
